EN

Hourly Weather Bovtyshka

Today, 18 May, Tuesday

Time Temperature Precipitation Wind Pressure Humidity
00:00 +14°C° 0 mm 2 mps 739 mmHg 91%
01:00 +14°C° 0 mm 2 mps 739 mmHg 91%
02:00 +14°C° 0 mm 2 mps 738 mmHg 92%
03:00 +14°C° 0.2 mm 2 mps 738 mmHg 93%
04:00 +14°C° 0.2 mm 2 mps 738 mmHg 94%
05:00 +14°C° 0.2 mm 2 mps 738 mmHg 95%
06:00 +14°C° 0.1 mm 3 mps 738 mmHg 90%
07:00 +15°C° 0.1 mm 4 mps 738 mmHg 85%
08:00 +17°C° 0.1 mm 4 mps 738 mmHg 80%
09:00 +19°C° 0.7 mm 5 mps 738 mmHg 75%
10:00 +20°C° 0.7 mm 5 mps 738 mmHg 69%
11:00 +21°C° 0.7 mm 5 mps 737 mmHg 63%
12:00 +20°C° 0.9 mm 6 mps 737 mmHg 67%
13:00 +20°C° 0.9 mm 6 mps 737 mmHg 70%
14:00 +18°C° 0.9 mm 7 mps 737 mmHg 74%
15:00 +17°C° 0.3 mm 6 mps 736 mmHg 76%
16:00 +17°C° 0.3 mm 6 mps 736 mmHg 78%
17:00 +16°C° 0.3 mm 5 mps 736 mmHg 80%
18:00 +15°C° 0.3 mm 5 mps 736 mmHg 84%
19:00 +14°C° 0.3 mm 4 mps 736 mmHg 88%
20:00 +13°C° 0.3 mm 4 mps 736 mmHg 92%
21:00 +12°C° 0.1 mm 4 mps 736 mmHg 92%
22:00 +12°C° 0.1 mm 3 mps 736 mmHg 93%
23:00 +11°C° 0.1 mm 3 mps 736 mmHg 93%

Tomorrow, 19 May, Wednesday

Time Temperature Precipitation Wind Pressure Humidity
00:00 +11°C° 0 mm 3 mps 736 mmHg 93%
01:00 +10°C° 0 mm 3 mps 736 mmHg 94%
02:00 +10°C° 0 mm 3 mps 736 mmHg 94%
03:00 +10°C° 0 mm 3 mps 736 mmHg 95%
04:00 +10°C° 0 mm 3 mps 736 mmHg 95%
05:00 +10°C° 0 mm 3 mps 736 mmHg 95%
06:00 +11°C° 0 mm 4 mps 737 mmHg 90%
07:00 +13°C° 0 mm 4 mps 737 mmHg 85%
08:00 +14°C° 0 mm 5 mps 737 mmHg 80%
09:00 +15°C° 0.2 mm 4 mps 737 mmHg 75%
10:00 +17°C° 0.2 mm 4 mps 737 mmHg 71%
11:00 +17°C° 0.2 mm 4 mps 737 mmHg 66%
12:00 +17°C° 0.1 mm 4 mps 738 mmHg 68%
13:00 +17°C° 0.1 mm 3 mps 738 mmHg 71%
14:00 +16°C° 0.1 mm 3 mps 738 mmHg 73%
15:00 +16°C° 0.1 mm 3 mps 738 mmHg 73%
16:00 +17°C° 0.1 mm 3 mps 738 mmHg 73%
17:00 +17°C° 0.1 mm 3 mps 738 mmHg 73%
18:00 +15°C° 0.2 mm 4 mps 739 mmHg 79%
19:00 +13°C° 0.2 mm 5 mps 739 mmHg 85%
20:00 +11°C° 0.2 mm 6 mps 740 mmHg 91%
21:00 +11°C° 0 mm 6 mps 740 mmHg 91%
22:00 +10°C° 0 mm 5 mps 740 mmHg 91%
23:00 +10°C° 0 mm 5 mps 740 mmHg 91%

Day after tomorrow, 20 May, Thursday

Time Temperature Precipitation Wind Pressure Humidity
00:00 +10°C° 0 mm 5 mps 741 mmHg 91%
01:00 +10°C° 0 mm 5 mps 741 mmHg 91%
02:00 +9°C° 0 mm 5 mps 741 mmHg 91%
03:00 +9°C° 0 mm 5 mps 741 mmHg 91%
04:00 +9°C° 0 mm 5 mps 741 mmHg 91%
05:00 +9°C° 0 mm 5 mps 742 mmHg 91%
06:00 +10°C° 0 mm 5 mps 742 mmHg 84%
07:00 +13°C° 0 mm 5 mps 742 mmHg 76%
08:00 +15°C° 0 mm 5 mps 742 mmHg 68%
09:00 +16°C° 0 mm 5 mps 743 mmHg 64%
10:00 +18°C° 0 mm 4 mps 743 mmHg 61%
11:00 +19°C° 0 mm 4 mps 743 mmHg 57%
12:00 +19°C° 0.1 mm 4 mps 743 mmHg 57%
13:00 +19°C° 0.1 mm 3 mps 743 mmHg 57%
14:00 +19°C° 0.1 mm 3 mps 743 mmHg 58%
15:00 +18°C° 0.5 mm 3 mps 743 mmHg 68%
16:00 +16°C° 0.5 mm 2 mps 743 mmHg 78%
17:00 +15°C° 0.5 mm 2 mps 744 mmHg 89%
18:00 +14°C° 0.9 mm 2 mps 744 mmHg 91%
19:00 +14°C° 0.9 mm 2 mps 744 mmHg 93%
20:00 +13°C° 0.9 mm 1 mps 744 mmHg 95%
21:00 +13°C° 1.2 mm 2 mps 744 mmHg 95%
22:00 +13°C° 1.2 mm 2 mps 744 mmHg 96%
23:00 +12°C° 1.2 mm 3 mps 744 mmHg 96%

21 May, Friday

Time Temperature Precipitation Wind Pressure Humidity
00:00 +12°C° 0.6 mm 3 mps 744 mmHg 96%
01:00 +12°C° 0.6 mm 3 mps 744 mmHg 96%
02:00 +12°C° 0.6 mm 4 mps 744 mmHg 96%
03:00 +12°C° 0.4 mm 4 mps 744 mmHg 96%
04:00 +12°C° 0.4 mm 5 mps 743 mmHg 96%
05:00 +12°C° 0.4 mm 5 mps 743 mmHg 96%
06:00 +12°C° 0.2 mm 5 mps 744 mmHg 94%
07:00 +13°C° 0.2 mm 6 mps 744 mmHg 93%
08:00 +13°C° 0.2 mm 6 mps 744 mmHg 91%
09:00 +13°C° 0.1 mm 6 mps 744 mmHg 91%
10:00 +13°C° 0.1 mm 5 mps 744 mmHg 90%
11:00 +13°C° 0.1 mm 5 mps 744 mmHg 90%
12:00 +14°C° 0 mm 6 mps 744 mmHg 90%
13:00 +14°C° 0 mm 6 mps 744 mmHg 90%
14:00 +14°C° 0 mm 6 mps 744 mmHg 91%
15:00 +13°C° 0 mm 6 mps 744 mmHg 91%
16:00 +13°C° 0 mm 6 mps 744 mmHg 92%
17:00 +13°C° 0 mm 6 mps 744 mmHg 93%
18:00 +13°C° 0 mm 6 mps 745 mmHg 93%
19:00 +11°C° 0 mm 6 mps 745 mmHg 94%
20:00 +11°C° 0 mm 6 mps 745 mmHg 95%
21:00 +12°C° 0 mm 5 mps 745 mmHg 95%
22:00 +12°C° 0 mm 5 mps 745 mmHg 95%
23:00 +12°C° 0 mm 5 mps 745 mmHg 95%

22 May, Saturday

Time Temperature Precipitation Wind Pressure Humidity
00:00 +10°C° 0 mm 5 mps 745 mmHg 95%
01:00 +10°C° 0 mm 5 mps 745 mmHg 95%
02:00 +10°C° 0 mm 5 mps 745 mmHg 95%
03:00 +10°C° 0 mm 5 mps 745 mmHg 94%
04:00 +10°C° 0 mm 5 mps 745 mmHg 93%
05:00 +11°C° 0 mm 4 mps 746 mmHg 92%
06:00 +12°C° 0 mm 5 mps 746 mmHg 89%
07:00 +13°C° 0 mm 6 mps 746 mmHg 87%
08:00 +14°C° 0 mm 6 mps 746 mmHg 84%
09:00 +15°C° 0 mm 6 mps 746 mmHg 79%
10:00 +17°C° 0 mm 6 mps 746 mmHg 75%
11:00 +19°C° 0 mm 6 mps 746 mmHg 71%
12:00 +20°C° 0 mm 5 mps 746 mmHg 69%
13:00 +21°C° 0 mm 5 mps 746 mmHg 67%
14:00 +21°C° 0 mm 5 mps 746 mmHg 65%
15:00 +21°C° 0 mm 4 mps 746 mmHg 68%
16:00 +20°C° 0 mm 4 mps 746 mmHg 71%
17:00 +19°C° 0 mm 4 mps 746 mmHg 74%
18:00 +18°C° 0 mm 3 mps 746 mmHg 79%
19:00 +17°C° 0 mm 3 mps 746 mmHg 83%
20:00 +16°C° 0 mm 2 mps 746 mmHg 87%
21:00 +16°C° 0 mm 2 mps 746 mmHg 89%
22:00 +15°C° 0 mm 2 mps 746 mmHg 90%
23:00 +14°C° 0 mm 2 mps 746 mmHg 91%

23 May, Sunday

Time Temperature Precipitation Wind Pressure Humidity
00:00 +14°C° 0 mm 1 mps 746 mmHg 91%
01:00 +14°C° 0 mm 1 mps 746 mmHg 91%
02:00 +14°C° 0 mm 1 mps 746 mmHg 91%
03:00 +14°C° 0 mm 1 mps 746 mmHg 92%
04:00 +14°C° 0 mm 1 mps 746 mmHg 92%
05:00 +14°C° 0 mm 1 mps 746 mmHg 92%
06:00 +15°C° 0 mm 2 mps 746 mmHg 86%
07:00 +17°C° 0 mm 2 mps 746 mmHg 79%
08:00 +19°C° 0 mm 2 mps 746 mmHg 72%
09:00 +20°C° 0 mm 2 mps 746 mmHg 66%
10:00 +21°C° 0 mm 2 mps 746 mmHg 59%
11:00 +24°C° 0 mm 2 mps 746 mmHg 52%
12:00 +24°C° 0 mm 2 mps 746 mmHg 50%
13:00 +25°C° 0 mm 2 mps 746 mmHg 48%
14:00 +25°C° 0 mm 2 mps 746 mmHg 46%
15:00 +25°C° 0 mm 2 mps 746 mmHg 48%
16:00 +25°C° 0 mm 2 mps 746 mmHg 51%
17:00 +25°C° 0 mm 2 mps 746 mmHg 53%
18:00 +23°C° 0 mm 2 mps 746 mmHg 59%
19:00 +21°C° 0 mm 1 mps 746 mmHg 65%
20:00 +19°C° 0 mm 1 mps 746 mmHg 71%
21:00 +19°C° 0 mm 1 mps 746 mmHg 73%
22:00 +18°C° 0 mm 1 mps 746 mmHg 75%
23:00 +16°C° 0 mm 0 mps 746 mmHg 76%
Show more

We Need Your Consent

Meteoprog and our Service Providers may store and access personal data such as cookies, device identifiers or other similar technologies on your device and process such data to personalise content and ads, as well as provide social media features and to analyse the traffic.

  • Store and/or access information on your device

    Cookies, device identifiers or other information can be stored or accessed on your device for the purposes indicated above.

  • Personalised ads and content, ad and content measurement, audience insights, and products development

    Ads and content can be personalised based on a profile. More data can be added to better personalise ads and content. Ad and content performance can be measured. Insights about the audience who saw the ads and content can be derived. Such data can be used to develop or improve user’s experience, systems and software.

By clicking ‘I Agree’ you will allow the use of indicated cookies, device identifiers, web beacons or other similar technologies. Your settings can be changed in the browser on your device.

For certain purposes, legitimate interests may be relied on, rather than consent. You can read more about this in our Privacy and Cookie Policy.